When you browse on this site, cookies collect data to enhance your experience and personalize the content and advertising you see.
Visit our Privacy Policy to learn more. By continuing to use the site, you agree to this use of cookies and data.
  • In Spain
  • List of Countries
  • For 7 days
  • Water Temperature
  • Weather Map
  • Weather Widgets
  • user-avatar
    Login

    Hourly Weather Asuan

    Today, 21 October, Monday

    Time Temperature Precipitation Wind Pressure Humidity
    00:00 +30°C° 0 mm 4 mps 743 mmHg 20%
    01:00 +29°C° 0 mm 5 mps 742 mmHg 22%
    02:00 +28°C° 0 mm 5 mps 742 mmHg 25%
    03:00 +27°C° 0 mm 5 mps 742 mmHg 25%
    04:00 +27°C° 0 mm 5 mps 742 mmHg 25%
    05:00 +26°C° 0 mm 5 mps 743 mmHg 25%
    06:00 +28°C° 0 mm 5 mps 743 mmHg 25%
    07:00 +29°C° 0 mm 5 mps 743 mmHg 24%
    08:00 +30°C° 0 mm 5 mps 743 mmHg 23%
    09:00 +34°C° 0 mm 6 mps 743 mmHg 20%
    10:00 +36°C° 0 mm 6 mps 743 mmHg 18%
    11:00 +39°C° 0 mm 7 mps 743 mmHg 15%
    12:00 +40°C° 0 mm 6 mps 742 mmHg 14%
    13:00 +41°C° 0 mm 6 mps 741 mmHg 13%
    14:00 +41°C° 0 mm 6 mps 740 mmHg 12%
    15:00 +40°C° 0 mm 5 mps 740 mmHg 13%
    16:00 +38°C° 0 mm 4 mps 740 mmHg 13%
    17:00 +37°C° 0 mm 4 mps 740 mmHg 14%
    18:00 +36°C° 0 mm 4 mps 740 mmHg 16%
    19:00 +35°C° 0 mm 4 mps 740 mmHg 17%
    20:00 +33°C° 0 mm 5 mps 741 mmHg 19%
    21:00 +33°C° 0 mm 5 mps 741 mmHg 20%
    22:00 +32°C° 0 mm 5 mps 741 mmHg 21%
    23:00 +30°C° 0 mm 5 mps 741 mmHg 23%

    Tomorrow, 22 October, Tuesday

    Time Temperature Precipitation Wind Pressure Humidity
    00:00 +29°C° 0 mm 4 mps 741 mmHg 25%
    01:00 +28°C° 0 mm 3 mps 740 mmHg 27%
    02:00 +27°C° 0 mm 2 mps 740 mmHg 29%
    03:00 +27°C° 0 mm 2 mps 740 mmHg 30%
    04:00 +26°C° 0 mm 2 mps 740 mmHg 30%
    05:00 +26°C° 0 mm 2 mps 740 mmHg 30%
    06:00 +28°C° 0 mm 2 mps 740 mmHg 27%
    07:00 +29°C° 0 mm 2 mps 741 mmHg 25%
    08:00 +31°C° 0 mm 2 mps 741 mmHg 22%
    09:00 +34°C° 0 mm 3 mps 741 mmHg 20%
    10:00 +36°C° 0 mm 3 mps 741 mmHg 18%
    11:00 +38°C° 0 mm 3 mps 740 mmHg 16%
    12:00 +38°C° 0 mm 2 mps 740 mmHg 15%
    13:00 +39°C° 0 mm 1 mps 739 mmHg 14%
    14:00 +40°C° 0 mm 1 mps 738 mmHg 13%
    15:00 +37°C° 0 mm 1 mps 738 mmHg 13%
    16:00 +36°C° 0 mm 1 mps 738 mmHg 14%
    17:00 +35°C° 0 mm 1 mps 738 mmHg 15%
    18:00 +35°C° 0 mm 2 mps 739 mmHg 16%
    19:00 +34°C° 0 mm 3 mps 739 mmHg 18%
    20:00 +33°C° 0 mm 4 mps 739 mmHg 19%
    21:00 +32°C° 0 mm 4 mps 739 mmHg 22%
    22:00 +32°C° 0 mm 5 mps 740 mmHg 26%
    23:00 +30°C° 0 mm 6 mps 740 mmHg 29%

    Day after tomorrow, 23 October, Wednesday

    Time Temperature Precipitation Wind Pressure Humidity
    00:00 +29°C° 0 mm 6 mps 740 mmHg 31%
    01:00 +28°C° 0 mm 7 mps 740 mmHg 33%
    02:00 +28°C° 0 mm 7 mps 739 mmHg 36%
    03:00 +27°C° 0 mm 6 mps 740 mmHg 38%
    04:00 +27°C° 0 mm 6 mps 740 mmHg 40%
    05:00 +26°C° 0 mm 5 mps 740 mmHg 42%
    06:00 +27°C° 0 mm 5 mps 741 mmHg 40%
    07:00 +28°C° 0 mm 5 mps 741 mmHg 37%
    08:00 +29°C° 0 mm 6 mps 741 mmHg 35%
    09:00 +32°C° 0 mm 5 mps 741 mmHg 31%
    10:00 +34°C° 0 mm 5 mps 741 mmHg 26%
    11:00 +36°C° 0 mm 4 mps 741 mmHg 22%
    12:00 +37°C° 0 mm 4 mps 740 mmHg 20%
    13:00 +38°C° 0 mm 4 mps 739 mmHg 18%
    14:00 +40°C° 0 mm 4 mps 739 mmHg 17%
    15:00 +38°C° 0 mm 4 mps 739 mmHg 17%
    16:00 +37°C° 0 mm 4 mps 739 mmHg 18%
    17:00 +36°C° 0 mm 5 mps 739 mmHg 19%
    18:00 +34°C° 0 mm 5 mps 739 mmHg 22%
    19:00 +32°C° 0 mm 5 mps 740 mmHg 25%
    20:00 +30°C° 0 mm 5 mps 741 mmHg 28%
    21:00 +29°C° 0 mm 5 mps 741 mmHg 30%
    22:00 +28°C° 0 mm 5 mps 741 mmHg 31%
    23:00 +28°C° 0 mm 5 mps 741 mmHg 33%

    24 October, Thursday

    Time Temperature Precipitation Wind Pressure Humidity
    00:00 +27°C° 0 mm 5 mps 741 mmHg 35%
    01:00 +26°C° 0 mm 5 mps 741 mmHg 36%
    02:00 +25°C° 0 mm 4 mps 741 mmHg 37%
    03:00 +25°C° 0 mm 4 mps 741 mmHg 38%
    04:00 +25°C° 0 mm 4 mps 741 mmHg 38%
    05:00 +23°C° 0 mm 4 mps 741 mmHg 39%
    06:00 +26°C° 0 mm 4 mps 742 mmHg 35%
    07:00 +27°C° 0 mm 5 mps 742 mmHg 31%
    08:00 +28°C° 0 mm 5 mps 742 mmHg 28%
    09:00 +30°C° 0 mm 4 mps 742 mmHg 25%
    10:00 +32°C° 0 mm 4 mps 742 mmHg 22%
    11:00 +34°C° 0 mm 3 mps 742 mmHg 19%
    12:00 +35°C° 0 mm 4 mps 741 mmHg 18%
    13:00 +35°C° 0 mm 5 mps 741 mmHg 16%
    14:00 +36°C° 0 mm 5 mps 740 mmHg 15%
    15:00 +35°C° 0 mm 5 mps 740 mmHg 16%
    16:00 +34°C° 0 mm 5 mps 740 mmHg 16%
    17:00 +33°C° 0 mm 5 mps 741 mmHg 17%
    18:00 +30°C° 0 mm 5 mps 741 mmHg 18%
    19:00 +28°C° 0 mm 5 mps 741 mmHg 19%
    20:00 +27°C° 0 mm 6 mps 742 mmHg 20%
    21:00 +26°C° 0 mm 5 mps 742 mmHg 22%
    22:00 +25°C° 0 mm 5 mps 742 mmHg 24%
    23:00 +25°C° 0 mm 5 mps 742 mmHg 26%

    25 October, Friday

    Time Temperature Precipitation Wind Pressure Humidity
    00:00 +23°C° 0 mm 5 mps 742 mmHg 29%
    01:00 +23°C° 0 mm 5 mps 742 mmHg 31%
    02:00 +22°C° 0 mm 5 mps 742 mmHg 34%
    03:00 +22°C° 0 mm 4 mps 742 mmHg 36%
    04:00 +21°C° 0 mm 4 mps 742 mmHg 38%
    05:00 +21°C° 0 mm 3 mps 742 mmHg 41%
    06:00 +22°C° 0 mm 4 mps 742 mmHg 38%
    07:00 +25°C° 0 mm 4 mps 743 mmHg 36%
    08:00 +26°C° 0 mm 4 mps 743 mmHg 33%
    09:00 +28°C° 0 mm 4 mps 743 mmHg 29%
    10:00 +29°C° 0 mm 4 mps 743 mmHg 25%
    11:00 +32°C° 0 mm 4 mps 742 mmHg 21%
    12:00 +33°C° 0 mm 4 mps 742 mmHg 20%
    13:00 +34°C° 0 mm 4 mps 741 mmHg 18%
    14:00 +34°C° 0 mm 4 mps 741 mmHg 16%
    15:00 +34°C° 0 mm 4 mps 741 mmHg 17%
    16:00 +33°C° 0 mm 4 mps 741 mmHg 19%
    17:00 +32°C° 0 mm 4 mps 741 mmHg 20%
    18:00 +29°C° 0 mm 4 mps 741 mmHg 23%
    19:00 +28°C° 0 mm 4 mps 741 mmHg 26%
    20:00 +27°C° 0 mm 4 mps 742 mmHg 28%
    21:00 +26°C° 0 mm 4 mps 742 mmHg 29%
    22:00 +26°C° 0 mm 4 mps 742 mmHg 31%
    23:00 +25°C° 0 mm 5 mps 742 mmHg 32%

    26 October, Saturday

    Time Temperature Precipitation Wind Pressure Humidity
    00:00 +23°C° 0 mm 4 mps 742 mmHg 34%
    01:00 +23°C° 0 mm 4 mps 742 mmHg 37%
    02:00 +22°C° 0 mm 4 mps 742 mmHg 39%
    03:00 +22°C° 0 mm 4 mps 742 mmHg 41%
    04:00 +21°C° 0 mm 4 mps 742 mmHg 43%
    05:00 +21°C° 0 mm 3 mps 742 mmHg 44%
    06:00 +22°C° 0 mm 4 mps 742 mmHg 43%
    07:00 +25°C° 0 mm 4 mps 743 mmHg 42%
    08:00 +26°C° 0 mm 5 mps 743 mmHg 41%
    09:00 +28°C° 0 mm 4 mps 743 mmHg 36%
    10:00 +30°C° 0 mm 4 mps 743 mmHg 30%
    11:00 +33°C° 0 mm 4 mps 743 mmHg 25%
    12:00 +33°C° 0 mm 4 mps 742 mmHg 22%
    13:00 +34°C° 0 mm 3 mps 741 mmHg 19%
    14:00 +35°C° 0 mm 3 mps 740 mmHg 16%
    15:00 +34°C° 0 mm 3 mps 740 mmHg 17%
    16:00 +33°C° 0 mm 3 mps 740 mmHg 17%
    17:00 +32°C° 0 mm 4 mps 740 mmHg 18%
    18:00 +30°C° 0 mm 4 mps 741 mmHg 19%
    19:00 +29°C° 0 mm 4 mps 741 mmHg 21%
    20:00 +28°C° 0 mm 4 mps 741 mmHg 22%
    21:00 +27°C° 0 mm 4 mps 741 mmHg 25%
    22:00 +26°C° 0 mm 5 mps 742 mmHg 27%
    23:00 +26°C° 0 mm 5 mps 742 mmHg 29%

    27 October, Sunday

    Time Temperature Precipitation Wind Pressure Humidity
    00:00 +25°C° 0 mm 5 mps 742 mmHg 34%
    01:00 +23°C° 0 mm 4 mps 741 mmHg 39%
    02:00 +23°C° 0 mm 4 mps 741 mmHg 43%
    03:00 +22°C° 0 mm 4 mps 741 mmHg 46%
    04:00 +22°C° 0 mm 3 mps 741 mmHg 48%
    05:00 +22°C° 0 mm 3 mps 741 mmHg 50%
    06:00 +23°C° 0 mm 4 mps 742 mmHg 46%
    07:00 +25°C° 0 mm 4 mps 742 mmHg 42%
    08:00 +27°C° 0 mm 5 mps 742 mmHg 37%
    09:00 +29°C° 0 mm 5 mps 742 mmHg 32%
    10:00 +32°C° 0 mm 5 mps 742 mmHg 27%
    11:00 +34°C° 0 mm 5 mps 742 mmHg 22%
    12:00 +34°C° 0 mm 5 mps 741 mmHg 20%
    13:00 +35°C° 0 mm 4 mps 740 mmHg 19%
    14:00 +36°C° 0 mm 4 mps 740 mmHg 18%
    15:00 +35°C° 0 mm 4 mps 740 mmHg 19%
    16:00 +34°C° 0 mm 3 mps 740 mmHg 19%
    17:00 +33°C° 0 mm 3 mps 740 mmHg 20%
    18:00 +32°C° 0 mm 4 mps 740 mmHg 20%
    19:00 +30°C° 0 mm 4 mps 741 mmHg 21%
    20:00 +28°C° 0 mm 5 mps 741 mmHg 21%
    21:00 +28°C° 0 mm 5 mps 741 mmHg 22%
    22:00 +27°C° 0 mm 5 mps 741 mmHg 23%
    23:00 +26°C° 0 mm 5 mps 742 mmHg 24%
    Show more